CDT,Max TemperatureF,Mean TemperatureF,Min TemperatureF,Max Dew PointF,MeanDew PointF,Min DewpointF,Max Humidity, Mean Humidity, Min Humidity, Max Sea Level PressureIn, Mean Sea Level PressureIn, Min Sea Level PressureIn, Max VisibilityMiles, Mean VisibilityMiles, Min VisibilityMiles, Max Wind SpeedMPH, Mean Wind SpeedMPH, Max Gust SpeedMPH,PrecipitationIn, CloudCover, Events, WindDirDegrees
2011-10-1,69,50,32,37,33,27,93,56,21,30.35,30.28,30.19,10,10,5,13,7,18,0.00,0,,138
2011-10-2,82,63,44,37,34,27,71,41,13,30.22,30.17,30.11,10,10,7,14,9,21,0.00,0,,162
2011-10-3,82,62,42,41,32,12,81,40,7,30.20,30.17,30.13,10,10,7,16,7,21,0.00,0,,152
2011-10-4,87,66,46,45,36,30,66,36,15,30.17,30.10,30.02,10,10,7,23,9,30,0.00,0,,140
2011-10-5,87,74,62,46,40,28,55,33,12,30.08,30.04,29.99,10,10,10,22,12,26,0.00,0,,157
2011-10-6,84,67,50,45,37,25,71,38,11,30.06,30.00,29.93,10,10,10,26,13,34,0.00,0,,134
2011-10-7,84,76,68,59,53,45,56,46,37,29.94,29.89,29.83,10,10,7,36,21,44,0.00,2,,155
2011-10-8,82,76,69,59,55,52,57,49,37,30.08,30.02,29.94,10,10,10,23,17,29,0.00,2,Rain-Thunderstorm,175
2011-10-9,82,70,57,61,52,41,88,57,23,30.20,30.15,30.09,10,10,7,18,6,24,0.00,2,,140
2011-10-10,69,63,57,59,54,50,88,73,56,30.08,30.00,29.92,10,10,7,14,10,16,0.02,1,Rain,150
2011-10-11,78,64,51,55,50,41,88,66,28,29.92,29.86,29.78,10,10,10,17,9,24,0.00,1,,152
2011-10-12,66,60,55,57,54,52,94,83,60,29.78,29.73,29.68,10,10,5,16,8,22,0.14,5,Rain-Thunderstorm,224
2011-10-13,64,55,46,52,45,37,94,70,37,29.75,29.71,29.68,10,10,4,23,12,30,0.00,2,,287
2011-10-14,57,52,46,48,44,43,88,78,59,29.88,29.79,29.71,10,10,5,28,16,36,0.02,5,Rain,284
2011-10-15,64,52,39,45,37,28,87,61,26,29.97,29.90,29.85,10,10,10,18,10,22,0.00,2,Rain,276
2011-10-16,60,51,42,45,34,21,87,56,22,29.96,29.92,29.87,10,10,10,28,11,36,0.00,2,Rain,280
2011-10-17,60,48,37,34,27,19,75,47,22,29.96,29.93,29.90,10,10,10,26,13,36,0.00,0,,273
2011-10-18,51,42,33,34,29,21,87,62,32,30.08,30.01,29.92,10,10,10,24,14,32,0.00,4,,308
2011-10-19,48,37,26,34,29,21,81,67,54,30.13,30.09,30.06,10,10,10,17,10,22,0.00,6,,324
2011-10-20,55,42,28,36,29,25,93,70,36,30.05,30.01,29.97,10,10,10,21,10,26,0.00,0,,302
2011-10-21,69,48,28,37,29,23,86,57,21,30.06,30.02,29.96,10,10,10,15,7,16,0.00,0,,219
2011-10-22,62,48,33,39,34,30,93,59,30,30.15,30.09,30.01,10,10,3,10,6,,0.00,1,,303
2011-10-23,71,60,48,52,42,36,87,60,28,29.97,29.86,29.78,10,10,7,24,9,33,0.06,3,Rain-Thunderstorm,238
2011-10-24,69,52,35,43,35,27,93,62,20,30.04,29.99,29.91,10,10,10,13,5,,0.00,0,,219
2011-10-25,59,52,46,43,40,34,82,64,47,30.03,29.84,29.77,10,10,10,22,12,28,0.00,2,,27
2011-10-26,51,44,37,39,37,34,87,73,58,30.13,30.08,30.03,10,10,10,12,6,,0.00,5,Rain,331
2011-10-27,53,40,28,36,26,16,93,61,22,30.10,30.08,30.05,10,10,10,12,6,17,0.00,1,,264
2011-10-28,57,45,33,32,21,10,65,44,16,30.10,30.06,30.03,10,10,10,23,10,31,0.00,2,,262
2011-10-29,57,40,23,25,18,12,80,45,17,30.08,30.01,29.89,10,10,10,15,7,20,0.00,0,,168
2011-10-30,48,44,41,39,31,19,76,56,32,29.99,29.87,29.77,10,10,10,23,11,30,0.00,7,,285
2011-10-31,59,42,26,34,27,21,93,59,23,30.05,29.99,29.91,10,10,10,14,7,,0.00,0,,208